Location: Ottawa
(45.4170°N, 75.7000°W)
Time: 23:21:02
(UTC-05:00)

Amateur Radio Satellites - All Passes

Search period start: 14 December 2017 22:51
Search period end: 15 December 2017 22:51
Location: Ottawa, 45.4170°N, 75.7000°W

Satellite Date Start Highest point End Downlink Frequencies (MHz)
Time Altitude Azimuth
VELOX 1 14 Dec 22:52:12 22:55:32 21° 63° (ENE) 22:58:51 145.980
ESTCUBE 1 14 Dec 22:54:22 22:58:51 66° 258° (WSW) 23:03:23 437.505/2401.250
LO-87 14 Dec 22:55:22 22:58:42 38° 262° (W) 23:02:02 145.935 - 145.965
QB50P2 14 Dec 23:02:00 23:04:49 17° 92° (E) 23:07:36 145.880/145.840
DUCHIFAT 1 14 Dec 23:07:33 23:09:35 13° 90° (E) 23:11:37 145.980
TIGRISAT 14 Dec 23:09:51 23:13:10 22° 295° (WNW) 23:16:31 435.000
FALCONSAT 3 14 Dec 23:11:52 23:14:05 15° 171° (S) 23:16:19 435.103
UNISAT 6 14 Dec 23:13:24 23:16:27 19° 296° (WNW) 23:19:32 437.425
AIST 2D 14 Dec 23:24:18 23:27:52 89° 93° (E) 23:31:25 435.315
SPROUT 14 Dec 23:30:42 23:34:56 76° 73° (ENE) 23:39:11 437.525
NANOSAT C BR1 14 Dec 23:32:47 23:36:26 28° 96° (E) 23:40:04 145.865
DX 1 14 Dec 23:47:49 23:50:49 18° 62° (ENE) 23:53:48 434.975-435.025
EO-79 14 Dec 23:47:56 23:52:00 46° 99° (E) 23:56:04 145.935-145.965
PRISM 14 Dec 23:49:20 23:52:36 23° 295° (WNW) 23:55:50 437.425
SO-50 15 Dec 00:01:10 00:05:51 83° 235° (SW) 00:10:35 436.795
50 SAT 15 Dec 00:03:50 00:06:05 18° 67° (ENE) 00:08:21 437.505
AO-85 15 Dec 00:08:08 00:10:21 14° 329° (NNW) 00:12:38 145.980
POLYITAN 1 15 Dec 00:10:53 00:15:08 83° 105° (ESE) 00:19:21 437.675
RS-15 15 Dec 00:11:36 00:23:10 64° 244° (WSW) 00:34:06 29.354- 29.394
VELOX 1 15 Dec 00:27:24 00:31:40 45° 261° (W) 00:35:58 145.980
QB50P2 15 Dec 00:36:47 00:40:50 47° 288° (WNW) 00:44:53 145.880/145.840
Oscar 19 15 Dec 00:40:53 00:44:50 21° 92° (E) 00:48:45 437.125/150
DUCHIFAT 1 15 Dec 00:41:29 00:45:37 60° 286° (WNW) 00:49:45 145.980
FALCONSAT 3 15 Dec 00:50:03 00:52:27 17° 186° (S) 00:54:51 435.103
MOZHAYETS 4 15 Dec 00:51:40 00:53:32 12° 58° (ENE) 00:55:25
UKube-1 15 Dec 01:06:02 01:10:19 68° 74° (ENE) 01:14:38 .
NANOSAT C BR1 15 Dec 01:08:29 01:12:05 28° 293° (WNW) 01:15:41 145.865
SPROUT 15 Dec 01:10:24 01:11:20 11° 272° (W) 01:12:16 437.525
BEESAT 15 Dec 01:13:31 01:16:20 16° 59° (ENE) 01:19:09 436.000
BUGSAT 1 15 Dec 01:21:06 01:25:10 89° 102° (ESE) 01:29:14 437.445
DX 1 15 Dec 01:22:20 01:26:36 51° 260° (W) 01:30:54 434.975-435.025
Gurwin Techsat 1B 15 Dec 01:23:48 01:28:45 38° 97° (E) 01:33:40 435.225
EO-79 15 Dec 01:24:31 01:27:26 18° 296° (WNW) 01:30:20 145.935-145.965
50 SAT 15 Dec 01:35:13 01:37:52 24° 264° (W) 01:40:33 437.505
ITUPSAT 1 15 Dec 01:40:38 01:44:34 26° 65° (ENE) 01:48:31 437.325
SO-50 15 Dec 01:44:16 01:45:34 11° 253° (WSW) 01:46:52 436.795
POLYITAN 1 15 Dec 01:48:53 01:50:15 11° 301° (WNW) 01:51:38 437.675
PCSat 15 Dec 01:49:37 01:53:33 20° 37° (NE) 01:57:27 145.827
AO-91 15 Dec 01:52:46 01:56:16 76° 285° (WNW) 01:59:38 145.960
YUBILEINY 15 Dec 02:09:01 02:16:57 40° 85° (E) 02:24:55 435.215
CUBESAT XI-V 15 Dec 02:13:49 02:17:14 21° 63° (ENE) 02:20:41 437.345
Oscar 19 15 Dec 02:19:24 02:24:28 54° 289° (WNW) 02:29:30 437.125/150
MOZHAYETS 4 15 Dec 02:25:27 02:30:00 86° 260° (W) 02:34:36
RS-15 15 Dec 02:27:44 02:32:51 14° 267° (W) 02:37:53 29.354- 29.394
AO-7 15 Dec 02:42:13 02:49:31 32° 95° (E) 02:56:46 .
UKube-1 15 Dec 02:44:56 02:46:47 13° 270° (W) 02:48:40 .
BEESAT 3 15 Dec 02:47:01 02:48:52 13° 33° (NNE) 02:50:43 437.485
BEESAT 15 Dec 02:48:48 02:53:32 71° 258° (WSW) 02:58:18 436.000
Gurwin Techsat 1B 15 Dec 03:03:55 03:08:36 32° 295° (WNW) 03:13:15 435.225
ITUPSAT 1 15 Dec 03:17:48 03:22:13 38° 262° (W) 03:26:41 437.325
BEESAT 2 15 Dec 03:28:04 03:29:25 11° 30° (NNE) 03:30:46 435.950
ITAMSAT 1 15 Dec 03:32:07 03:37:06 45° 99° (E) 03:42:01 435.822/435.867
PCSat 15 Dec 03:32:16 03:37:44 87° 59° (ENE) 03:43:09 145.827
CUBESAT XI-V 15 Dec 03:49:43 03:54:15 50° 261° (W) 03:58:50 437.345
M-CUBED/EXP-1 PRIME 15 Dec 03:56:07 04:00:41 81° 108° (ESE) 04:04:58 437.505
YUBILEINY 15 Dec 04:05:00 04:13:31 51° 286° (WNW) 04:22:08 435.215
KKS-1 15 Dec 04:12:30 04:16:54 62° 73° (ENE) 04:21:20 437.445
BEESAT 3 15 Dec 04:23:10 04:27:08 71° 54° (NE) 04:31:00 437.485
DOVE 4 15 Dec 04:31:00 04:35:08 34° 96° (E) 04:39:02 437.250
AO-7 15 Dec 04:34:31 04:42:46 65° 295° (WNW) 04:51:00 .
STARS 15 Dec 04:54:20 04:58:43 69° 73° (ENE) 05:03:05 437.465
FO-29 15 Dec 04:58:18 04:58:35 10° 43° (NE) 04:58:53 435.910
CUTE-I 15 Dec 05:02:35 05:04:56 13° 87° (E) 05:07:18 437.470
BEESAT 2 15 Dec 05:04:02 05:08:02 55° 51° (NE) 05:11:57 435.950
ITAMSAT 1 15 Dec 05:12:02 05:16:18 27° 297° (WNW) 05:20:34 435.822/435.867
AO-85 15 Dec 05:13:29 05:17:34 29° 43° (NE) 05:21:54 145.980
PCSat 15 Dec 05:17:31 05:20:20 14° 257° (WSW) 05:23:10 145.827
LilacSat-2 15 Dec 05:18:27 05:21:22 20° 93° (E) 05:24:15 437.200
XW-2D 15 Dec 05:31:54 05:35:12 26° 95° (E) 05:38:28 145.860 - 145.880
M-CUBED/EXP-1 PRIME 15 Dec 05:31:54 05:34:22 15° 307° (NW) 05:36:47 437.505
NUDT-PHONESAT 15 Dec 05:34:49 05:37:32 19° 93° (E) 05:40:13 437.300
KAITUO 1B 15 Dec 05:39:08 05:42:10 22° 94° (E) 05:45:11 145.475/437.950
NO-84 15 Dec 05:41:13 05:42:57 14° 127° (SE) 05:44:45 435.350 FM
XW-2B 15 Dec 05:47:33 05:51:11 38° 98° (E) 05:54:46 145.730 - 145.750
KKS-1 15 Dec 05:51:26 05:53:52 14° 270° (W) 05:56:19 437.445
XW-2F 15 Dec 05:59:08 06:02:53 49° 99° (E) 06:06:36 145.980 - 146.000
STRAND 1 15 Dec 05:59:59 06:04:47 42° 68° (ENE) 06:09:35 437.568
BEESAT 3 15 Dec 06:02:37 06:04:04 12° 251° (WSW) 06:05:31 437.485
DOVE 4 15 Dec 06:08:57 06:12:40 25° 295° (WNW) 06:16:13 437.250
YUBILEINY 15 Dec 06:10:13 06:12:57 12° 312° (NW) 06:15:43 435.215
XW-2C 15 Dec 06:14:49 06:18:42 84° 103° (ESE) 06:22:33 145.795 - 145.815
CUBEBUG 2 15 Dec 06:16:02 06:18:14 14° 90° (E) 06:20:25 437.445
AO-7 15 Dec 06:28:52 06:33:59 18° 317° (NW) 06:39:06 .
STARS 15 Dec 06:33:34 06:35:30 13° 270° (W) 06:37:26 437.465
SEEDS 15 Dec 06:34:18 06:37:35 21° 93° (E) 06:40:50 437.485
FO-29 15 Dec 06:34:29 06:41:37 41° 63° (ENE) 06:48:43 435.910
HO-68 15 Dec 06:37:26 06:44:11 42° 98° (E) 06:50:53 435.675
CUTE-I 15 Dec 06:40:21 06:45:43 88° 283° (WNW) 06:51:01 437.470
BEESAT 2 15 Dec 06:42:48 06:45:19 16° 249° (WSW) 06:47:48 435.950
LilacSat-2 15 Dec 06:52:11 06:55:43 33° 290° (WNW) 06:59:13 437.200
AAUSAT CUBESAT 2 15 Dec 06:52:23 06:54:42 14° 90° (E) 06:57:00 437.432
AO-85 15 Dec 06:53:33 06:58:12 51° 240° (WSW) 07:03:10 145.980
CUTE 1.7 + AOD 2 15 Dec 06:57:36 07:01:52 61° 100° (E) 07:06:05 437.475
XW-2D 15 Dec 07:06:04 07:09:16 25° 292° (WNW) 07:12:27 145.860 - 145.880
NUDT-PHONESAT 15 Dec 07:08:02 07:11:27 33° 290° (WNW) 07:14:50 437.300
AO-73 15 Dec 07:12:00 07:14:31 15° 90° (E) 07:17:02 145.935
KAITUO 1B 15 Dec 07:12:49 07:16:08 29° 291° (WNW) 07:19:25 145.475/437.950
NO-84 15 Dec 07:16:42 07:19:44 62° 327° (NNW) 07:23:02 435.350 FM
XW-2B 15 Dec 07:22:23 07:25:04 18° 295° (WNW) 07:27:45 145.730 - 145.750
XW-2A 15 Dec 07:34:09 07:37:23 37° 98° (E) 07:40:36 145.665 - 145.685
XW-2F 15 Dec 07:34:24 07:36:35 15° 297° (WNW) 07:38:45 145.980 - 146.000
STRAND 1 15 Dec 07:39:49 07:44:06 26° 266° (W) 07:48:23 437.568
UWE-3 15 Dec 07:49:22 07:53:41 75° 102° (ESE) 07:58:06 435.000/436.395/437.385
CUBEBUG 2 15 Dec 07:51:00 07:55:12 60° 287° (WNW) 07:59:30 437.445
SEEDS 15 Dec 08:09:26 08:13:23 37° 290° (WNW) 08:17:17 437.485
ZACube-1 15 Dec 08:13:07 08:17:28 72° 102° (ESE) 08:21:54 437.345
O/OREOS (USA 219) 15 Dec 08:16:10 08:20:42 66° 111° (ESE) 08:25:15 437.305
FO-29 15 Dec 08:18:51 08:26:23 52° 262° (W) 08:34:01 435.910
CUTE-I 15 Dec 08:22:09 08:24:58 15° 304° (NW) 08:27:48 437.470
HO-68 15 Dec 08:25:15 08:31:55 43° 297° (WNW) 08:38:32 435.675
AAUSAT CUBESAT 2 15 Dec 08:26:24 08:30:29 54° 287° (WNW) 08:34:31 437.432
Oscar 11 15 Dec 08:31:51 08:36:12 65° 101° (E) 08:40:32 .
TIGRISAT 15 Dec 08:33:14 08:37:18 44° 71° (ENE) 08:41:22 435.000
CUTE 1.7 + AOD 2 15 Dec 08:34:45 08:37:12 15° 298° (WNW) 08:39:40 437.475
UNISAT 6 15 Dec 08:36:34 08:40:44 53° 72° (ENE) 08:44:54 437.425
AO-73 15 Dec 08:46:48 08:51:04 58° 287° (WNW) 08:55:26 145.935
NO-84 15 Dec 08:55:04 08:57:33 19° 348° (NNW) 09:00:10 435.350 FM
PRISM 15 Dec 09:04:39 09:08:22 33° 68° (ENE) 09:12:07 437.425
XW-2A 15 Dec 09:07:47 09:09:46 15° 295° (WNW) 09:11:45 145.665 - 145.685
DELFI C3 15 Dec 09:22:21 09:26:11 45° 99° (E) 09:29:57 145.870
Max Valier Satellite 15 Dec 09:24:43 09:28:08 32° 97° (E) 09:31:31 145.860
UWE-3 15 Dec 09:27:39 09:29:36 13° 299° (WNW) 09:31:33 435.000/436.395/437.385
ZACube-1 15 Dec 09:51:03 09:53:13 14° 299° (WNW) 09:55:24 437.345
EO-88 15 Dec 09:51:07 09:54:40 45° 99° (E) 09:58:12 145.990 - 145.960
QB50P2 15 Dec 09:56:47 09:59:36 18° 63° (ENE) 10:02:26 145.880/145.840
O/OREOS (USA 219) 15 Dec 09:57:29 10:00:35 18° 310° (NW) 10:03:40 437.305
AIST 2D 15 Dec 10:00:05 10:03:23 41° 72° (ENE) 10:06:45 435.315
DUCHIFAT 1 15 Dec 10:01:34 10:03:44 14° 61° (ENE) 10:05:54 145.980
Oscar 11 15 Dec 10:09:24 10:11:48 15° 299° (WNW) 10:14:14 .
TIGRISAT 15 Dec 10:11:16 10:14:13 18° 268° (W) 10:17:10 435.000
UNISAT 6 15 Dec 10:15:14 10:17:47 15° 269° (W) 10:20:19 437.425
LO-87 15 Dec 10:20:54 10:22:35 13° 91° (E) 10:24:18 145.935 - 145.965
NANOSAT C BR1 15 Dec 10:26:45 10:30:19 28° 67° (ENE) 10:33:52 145.865
NO-84 15 Dec 10:33:13 10:35:47 19° 10° (N) 10:38:28 435.350 FM
PRISM 15 Dec 10:40:17 10:43:40 24° 265° (W) 10:47:04 437.425
EO-79 15 Dec 10:42:02 10:46:01 45° 71° (ENE) 10:50:01 145.935-145.965
ESTCUBE 1 15 Dec 10:45:04 10:48:39 22° 93° (E) 10:52:12 437.505/2401.250
nSIGHT-1 15 Dec 10:56:48 10:59:38 29° 140° (SE) 11:02:28 .
DELFI C3 15 Dec 10:58:03 11:00:34 16° 296° (WNW) 11:03:03 145.870
Max Valier Satellite 15 Dec 10:59:00 11:01:44 20° 294° (WNW) 11:04:28 145.860
POLYITAN 1 15 Dec 11:05:01 11:09:11 80° 75° (ENE) 11:13:24 437.675
Gurwin Techsat 1B 15 Dec 11:11:04 11:13:09 12° 54° (NE) 11:15:14 435.225
SPROUT 15 Dec 11:16:27 11:17:29 11° 88° (E) 11:18:31 437.525
AO-91 15 Dec 11:17:05 11:19:23 14° 63° (ENE) 11:21:36 145.960
EO-88 15 Dec 11:25:53 11:27:56 14° 296° (WNW) 11:29:58 145.990 - 145.960
QB50P2 15 Dec 11:30:59 11:35:02 48° 261° (W) 11:39:06 145.880/145.840
DUCHIFAT 1 15 Dec 11:34:47 11:38:54 63° 259° (WSW) 11:43:03 145.980
AIST 2D 15 Dec 11:34:58 11:36:46 13° 269° (W) 11:38:34 435.315
ISS 15 Dec 11:40:53 11:44:06 55° 146° (SE) 11:47:21 437.550
LO-87 15 Dec 11:52:50 11:56:13 43° 288° (WNW) 11:59:35 145.935 - 145.965
AO-7 15 Dec 11:56:06 12:00:19 15° 40° (NE) 12:04:33 .
Oscar 19 15 Dec 11:59:32 12:04:16 39° 67° (ENE) 12:09:02 437.125/150
NANOSAT C BR1 15 Dec 12:02:21 12:05:57 28° 264° (W) 12:09:35 145.865
NO-84 15 Dec 12:10:11 12:13:42 45° 30° (NNE) 12:17:30 435.350 FM
BUGSAT 1 15 Dec 12:12:22 12:16:25 81° 75° (ENE) 12:20:27 437.445
VELOX 1 15 Dec 12:15:11 12:19:00 28° 95° (E) 12:22:45 145.980
YUBILEINY 15 Dec 12:16:14 12:22:50 22° 60° (ENE) 12:29:20 435.215
EO-79 15 Dec 12:19:11 12:22:00 17° 268° (W) 12:24:50 145.935-145.965
ESTCUBE 1 15 Dec 12:21:20 12:25:36 41° 290° (WNW) 12:29:50 437.505/2401.250
RS-15 15 Dec 12:29:23 12:36:54 19° 96° (E) 12:44:21 29.354- 29.394
nSIGHT-1 15 Dec 12:32:35 12:35:43 49° 338° (NNW) 12:38:53 .
Gurwin Techsat 1B 15 Dec 12:46:53 12:52:11 74° 72° (ENE) 12:57:31 435.225
SPROUT 15 Dec 12:49:37 12:53:53 75° 285° (WNW) 12:58:06 437.525
AO-91 15 Dec 12:50:33 12:55:26 77° 259° (WSW) 12:59:49 145.960
50 SAT 15 Dec 12:50:41 12:51:11 10° 91° (E) 12:51:40 437.505
DX 1 15 Dec 13:08:40 13:12:06 22° 94° (E) 13:15:30 434.975-435.025
M-CUBED/EXP-1 PRIME 15 Dec 13:10:12 13:13:16 19° 56° (NE) 13:16:25 437.505
ITAMSAT 1 15 Dec 13:16:00 13:18:36 14° 56° (NE) 13:21:12 435.822/435.867
ISS 15 Dec 13:17:38 13:20:43 35° 344° (NNW) 13:23:48 437.550
Oscar 19 15 Dec 13:39:12 13:43:39 29° 265° (W) 13:48:08 437.125/150
AO-7 15 Dec 13:43:17 13:51:15 54° 62° (ENE) 13:59:17 .
NO-84 15 Dec 13:47:29 13:50:55 32° 226° (SW) 13:54:34 435.350 FM
VELOX 1 15 Dec 13:51:31 13:55:25 31° 293° (WNW) 13:59:16 145.980
nSIGHT-1 15 Dec 14:09:38 14:12:24 26° 358° (N) 14:15:11 .
YUBILEINY 15 Dec 14:12:04 14:20:57 90° 263° (W) 14:29:44 435.215
SO-50 15 Dec 14:18:47 14:21:48 18° 111° (ESE) 14:24:50 436.795
MOZHAYETS 4 15 Dec 14:18:56 14:22:14 19° 92° (E) 14:25:32
50 SAT 15 Dec 14:20:21 14:23:21 41° 288° (WNW) 14:26:19 437.505
UKube-1 15 Dec 14:26:31 14:30:51 90° 322° (NW) 14:35:09 .
Gurwin Techsat 1B 15 Dec 14:29:32 14:32:42 16° 271° (W) 14:35:52 435.225
RS-15 15 Dec 14:34:56 14:47:09 72° 118° (ESE) 14:59:14 29.354- 29.394
M-CUBED/EXP-1 PRIME 15 Dec 14:42:49 14:47:08 61° 255° (WSW) 14:51:41 437.505
DX 1 15 Dec 14:44:21 14:48:23 38° 291° (WNW) 14:52:23 434.975-435.025
BEESAT 15 Dec 14:47:04 14:50:56 24° 94° (E) 14:54:47 436.000
ITAMSAT 1 15 Dec 14:52:04 14:57:17 86° 73° (ENE) 15:02:32 435.822/435.867
ISS 15 Dec 14:54:54 14:57:47 27° 5° (N) 15:00:39 437.550
ITUPSAT 1 15 Dec 15:15:31 15:20:06 44° 99° (E) 15:24:39 437.325
AO-7 15 Dec 15:36:38 15:44:14 39° 262° (W) 15:51:56 .
DOVE 4 15 Dec 15:37:12 15:42:14 49° 71° (ENE) 15:47:07 437.250
CUBESAT XI-V 15 Dec 15:43:56 15:48:14 34° 96° (E) 15:52:30 437.345
nSIGHT-1 15 Dec 15:46:06 15:49:10 39° 18° (NNE) 15:52:13 .
MOZHAYETS 4 15 Dec 15:55:11 15:59:40 49° 289° (WNW) 16:04:07
SO-50 15 Dec 15:57:23 16:01:48 60° 309° (NW) 16:06:17 436.795
LilacSat-2 15 Dec 16:03:05 16:05:14 15° 63° (ENE) 16:07:23 437.200
UKube-1 15 Dec 16:05:00 16:06:10 11° 302° (WNW) 16:07:19 .
YUBILEINY 15 Dec 16:10:36 16:16:28 20° 284° (WNW) 16:22:19 435.215
XW-2D 15 Dec 16:15:29 16:18:09 19° 65° (ENE) 16:20:50 145.860 - 145.880
NUDT-PHONESAT 15 Dec 16:16:49 16:18:27 13° 63° (ENE) 16:20:06 437.300
KAITUO 1B 15 Dec 16:21:38 16:23:53 15° 64° (ENE) 16:26:08 145.475/437.950
BEESAT 15 Dec 16:24:22 16:28:50 41° 291° (WNW) 16:33:17 436.000
CUTE-I 15 Dec 16:25:29 16:29:59 28° 63° (ENE) 16:34:29 437.470
XW-2B 15 Dec 16:30:49 16:33:58 25° 68° (ENE) 16:37:09 145.730 - 145.750
ISS 15 Dec 16:31:26 16:34:41 59° 24° (NNE) 16:37:57 437.550
ITAMSAT 1 15 Dec 16:35:06 16:37:25 13° 272° (W) 16:39:46 435.822/435.867
XW-2F 15 Dec 16:41:45 16:45:07 31° 70° (ENE) 16:48:31 145.980 - 146.000
STARS 15 Dec 16:44:46 16:44:55 10° 88° (E) 16:45:05 437.465
O/OREOS (USA 219) 15 Dec 16:45:20 16:48:58 23° 53° (NE) 16:52:32 437.305
RS-15 15 Dec 16:48:47 17:00:33 47° 325° (NW) 17:12:07 29.354- 29.394
ITUPSAT 1 15 Dec 16:53:52 16:57:41 24° 297° (WNW) 17:01:27 437.325
XW-2C 15 Dec 16:57:38 17:01:19 52° 73° (ENE) 17:05:03 145.795 - 145.815
HO-68 15 Dec 17:08:19 17:14:52 40° 62° (ENE) 17:21:27 435.675
DOVE 4 15 Dec 17:15:53 17:20:04 24° 267° (W) 17:24:12 437.250
CUBEBUG 2 15 Dec 17:16:33 17:18:56 15° 62° (ENE) 17:21:19 437.445
CUBESAT XI-V 15 Dec 17:21:27 17:25:30 29° 294° (WNW) 17:29:32 437.345
nSIGHT-1 15 Dec 17:22:19 17:25:24 43° 217° (SW) 17:28:28 .
SEEDS 15 Dec 17:28:04 17:31:11 20° 65° (ENE) 17:34:18 437.485
LilacSat-2 15 Dec 17:35:23 17:39:05 50° 261° (W) 17:42:51 437.200
KKS-1 15 Dec 17:37:28 17:41:55 89° 278° (W) 17:46:20 437.445
SO-50 15 Dec 17:40:50 17:43:13 14° 331° (NNW) 17:45:36 436.795
AAUSAT CUBESAT 2 15 Dec 17:44:53 17:47:02 14° 61° (ENE) 17:49:11 437.432
NUDT-PHONESAT 15 Dec 17:48:12 17:51:50 55° 260° (W) 17:55:30 437.300
XW-2D 15 Dec 17:48:32 17:52:03 36° 262° (W) 17:55:37 145.860 - 145.880
CUTE 1.7 + AOD 2 15 Dec 17:51:50 17:55:59 55° 73° (ENE) 18:00:11 437.475
KAITUO 1B 15 Dec 17:53:53 17:57:29 45° 261° (W) 18:01:08 145.475/437.950
CUTE-I 15 Dec 18:04:41 18:09:48 45° 261° (W) 18:14:57 437.470
XW-2B 15 Dec 18:04:54 18:08:04 25° 265° (W) 18:11:17 145.730 - 145.750
XW-2A 15 Dec 18:07:39 18:10:01 18° 67° (ENE) 18:12:24 145.665 - 145.685
ISS 15 Dec 18:08:16 18:10:58 23° 222° (SW) 18:13:39 437.550
AO-73 15 Dec 18:10:05 18:12:24 15° 62° (ENE) 18:14:43 145.935
STRAND 1 15 Dec 18:10:22 18:12:04 12° 87° (E) 18:13:46 437.568
PCSat 15 Dec 18:15:50 18:21:04 52° 115° (ESE) 18:26:19 145.827
XW-2F 15 Dec 18:16:25 18:19:16 20° 267° (W) 18:22:09 145.980 - 146.000
STARS 15 Dec 18:17:28 18:21:51 83° 285° (WNW) 18:26:12 437.465
O/OREOS (USA 219) 15 Dec 18:24:17 18:28:34 44° 252° (WSW) 18:32:48 437.305
XW-2C 15 Dec 18:34:08 18:35:49 13° 270° (W) 18:37:31 145.795 - 145.815
UWE-3 15 Dec 18:48:15 18:52:23 76° 76° (ENE) 18:56:32 435.000/436.395/437.385
CUBEBUG 2 15 Dec 18:51:00 18:55:08 56° 260° (W) 18:59:14 437.445
HO-68 15 Dec 18:55:40 19:02:31 46° 261° (W) 19:09:24 435.675
SEEDS 15 Dec 19:02:33 19:06:35 42° 263° (W) 19:10:38 437.485
RS-15 15 Dec 19:06:40 19:16:59 30° 358° (N) 19:26:58 29.354- 29.394
ZACube-1 15 Dec 19:10:47 19:14:53 70° 75° (ENE) 19:19:02 437.345
KKS-1 15 Dec 19:16:24 19:17:45 11° 303° (WNW) 19:19:06 437.445
AAUSAT CUBESAT 2 15 Dec 19:17:48 19:21:57 65° 259° (W) 19:26:08 437.432
FO-29 15 Dec 19:27:53 19:33:23 25° 88° (E) 19:38:21 435.910
Oscar 11 15 Dec 19:28:16 19:32:32 63° 74° (ENE) 19:36:50 .
CUTE 1.7 + AOD 2 15 Dec 19:29:43 19:32:09 15° 270° (W) 19:34:37 437.475
XW-2A 15 Dec 19:39:36 19:42:31 27° 264° (W) 19:45:29 145.665 - 145.685
AO-73 15 Dec 19:44:07 19:48:10 57° 259° (W) 19:52:17 145.935
STRAND 1 15 Dec 19:46:50 19:51:58 89° 101° (E) 19:57:03 437.568
BEESAT 3 15 Dec 19:51:05 19:54:59 60° 122° (ESE) 19:58:58 437.485
STARS 15 Dec 19:56:46 19:57:26 10° 303° (WNW) 19:58:06 437.465
PCSat 15 Dec 19:59:58 20:04:43 30° 315° (NW) 20:09:29 145.827
Max Valier Satellite 15 Dec 20:05:48 20:08:33 21° 67° (ENE) 20:11:21 145.860
DELFI C3 15 Dec 20:09:15 20:12:53 34° 70° (ENE) 20:16:32 145.870
EO-88 15 Dec 20:30:38 20:33:45 27° 69° (ENE) 20:36:52 145.990 - 145.960
BEESAT 2 15 Dec 20:33:54 20:37:46 47° 120° (ESE) 20:41:40 435.950
ZACube-1 15 Dec 20:50:32 20:51:40 11° 272° (W) 20:52:48 437.345
Oscar 11 15 Dec 21:07:00 21:09:06 13° 271° (W) 21:11:12 .
SO-50 15 Dec 21:08:00 21:08:38 10° 22° (NNE) 21:09:16 436.795
AO-85 15 Dec 21:10:39 21:14:02 28° 115° (ESE) 21:17:33 145.980
FO-29 15 Dec 21:12:09 21:19:03 62° 291° (WNW) 21:25:06 435.910
RS-15 15 Dec 21:22:19 21:33:37 43° 31° (NNE) 21:44:20 29.354- 29.394
STRAND 1 15 Dec 21:27:47 21:30:25 14° 303° (WNW) 21:33:02 437.568
BEESAT 3 15 Dec 21:29:55 21:32:52 20° 321° (NW) 21:35:51 437.485
Max Valier Satellite 15 Dec 21:38:59 21:42:12 29° 264° (W) 21:45:29 145.860
DELFI C3 15 Dec 21:44:41 21:47:42 20° 267° (W) 21:50:45 145.870
ESTCUBE 1 15 Dec 21:46:28 21:50:15 27° 66° (ENE) 21:54:03 437.505/2401.250
TIGRISAT 15 Dec 21:58:20 22:02:42 76° 103° (ESE) 22:07:07 435.000
UNISAT 6 15 Dec 22:01:58 22:06:21 90° 138° (SE) 22:10:48 437.425
EO-88 15 Dec 22:04:29 22:07:22 22° 266° (W) 22:10:16 145.990 - 145.960
SPROUT 15 Dec 22:11:40 22:13:23 12° 60° (ENE) 22:15:06 437.525
BEESAT 2 15 Dec 22:12:26 22:15:42 23° 319° (NW) 22:18:59 435.950
PRISM 15 Dec 22:18:23 22:22:13 37° 98° (E) 22:26:01 437.425
LO-87 15 Dec 22:30:03 22:33:35 84° 256° (WSW) 22:37:09 145.935 - 145.965
FALCONSAT 3 15 Dec 22:37:49 22:40:00 15° 170° (S) 22:42:10 435.103
